Location: Bovenkerk
(52.2915°N, 4.8336°E)
Time: 04:52:03
(UTC+00:00)

Cosmos 1340 - Pass Details

Date: 09 April 2020
Orbit: 500 x 506 km, 81.2° (Epoch: 31 May)

Event Time Altitude Azimuth Distance (km) Brightness Sun altitude
Rises 22:39:05 0° 346° (NNW) 2,626 7.6 -28.2°
Reaches altitude 10° 22:41:13 10° 345° (NNW) 1,736 6.3 -28.3°
Enters shadow 22:43:19 31° 341° (NNW) 916 4.5 -28.4°
